Weather History for Papa, Hungary

Change the Weather History Date:

Saturday, August 17, 2013

  Actual Average Record
Temperature  
Mean Temperature 68 °F -  
Max Temperature 86 °F - - ()
Min Temperature 50 °F - - ()
Cooling Degree Days 3    
Growing Degree Days 18 (Base 50)    
Moisture  
Dew Point 49 °F    
Average Humidity 53    
Maximum Humidity 88    
Minimum Humidity 25    
Precipitation  
Precipitation 0.00 in - - ()
Sea Level Pressure  
Sea Level Pressure 30.06 in    
Wind  
Wind Speed 4 mph ()    
Max Wind Speed 11 mph    
Max Gust Speed -    
T = Trace of Precipitation, MM = Missing Value Source: Averaged Metar Reports

Daily Weather History Graph

Daily Weather History Graph

Search for Another Location

Airport:

Trip Planner

Search our weather history database for the weather conditions in past years. The results will help you decide how hot, cold, wet, or windy it might be!

Date:

Astronomy

Aug. 17, 2013 Rise Set
Actual Time 5:49 AM CEST 7:58 PM CEST
Civil Twilight 5:15 AM CEST 8:31 PM CEST
Nautical Twilight 4:34 AM CEST 9:12 PM CEST
Astronomical Twilight 3:47 AM CEST 9:59 PM CEST
Moon 5:04 PM CEST (8/17) 1:25 AM CEST (8/17)
Length of Visible Light 15h 15m
Length of Day
14h 09m
Waxing Gibbous, 82% of the Moon is Illuminated
Aug 17
Waxing Gibbous
Aug 21
Full
Aug 28
Last Quarter
Sep 5
New
Sep 12
First Quarter

Hourly Weather History & Observations

Time (CEST) Temp. Dew Point Humidity Pressure Visibility Wind Dir Wind Speed Gust Speed Precip Events Conditions
12:15 AM 59.0 °F 48.2 °F 67% 30.12 in - SE 4.5 mph - N/A   Clear
12:45 AM 55.4 °F 48.2 °F 77% 30.09 in - SSE 4.5 mph - N/A   Clear
1:15 AM 55.4 °F 48.2 °F 77% 30.09 in - SSE 4.5 mph - N/A   Clear
1:45 AM 55.4 °F 48.2 °F 77% 30.09 in - SSE 2.2 mph - N/A   Clear
2:15 AM 53.6 °F 48.2 °F 82% 30.09 in - Calm Calm - N/A   Clear
2:45 AM 53.6 °F 48.2 °F 82% 30.09 in - Calm Calm - N/A   Clear
3:15 AM 53.6 °F 48.2 °F 82% 30.09 in - Calm Calm - N/A   Clear
3:45 AM - - N/A% - - Variable 4.5 mph - N/A   Clear
4:15 AM 51.8 °F 48.2 °F 88% 30.09 in - Calm Calm - N/A   Clear
4:45 AM 51.8 °F 46.4 °F 82% 30.09 in - Calm Calm - N/A   Clear
5:15 AM 50.0 °F 46.4 °F 87% 30.09 in - Calm Calm - N/A   Clear
5:45 AM 50.0 °F 46.4 °F 87% 30.09 in - SSE 2.2 mph - N/A   Clear
6:15 AM 50.0 °F 46.4 °F 87% 30.09 in - SSE 2.2 mph - N/A   Clear
6:45 AM - - N/A% - - Variable 4.5 mph - N/A   Clear
7:15 AM 57.2 °F 50.0 °F 77% 30.09 in - SSE 2.2 mph - N/A   Clear
7:45 AM 62.6 °F 51.8 °F 68% 30.09 in - SSE 2.2 mph - N/A   Clear
8:15 AM 68.0 °F 50.0 °F 52% 30.09 in - SSE 2.2 mph - N/A   Clear
8:45 AM 73.4 °F 48.2 °F 41% 30.09 in - South 4.5 mph - N/A   Clear
9:15 AM 75.2 °F 48.2 °F 38% 30.09 in - South 8.9 mph - N/A   Clear
9:45 AM - - N/A% - - South 8.9 mph - N/A   Clear
10:15 AM 78.8 °F 48.2 °F 34% 30.09 in - SSW 11.2 mph - N/A   Clear
10:45 AM 80.6 °F 46.4 °F 30% 30.09 in - South 11.2 mph - N/A   Clear
11:15 AM 82.4 °F 46.4 °F 28% 30.09 in - SSW 11.2 mph - N/A   Clear
11:45 AM 82.4 °F 48.2 °F 30% 30.09 in - SSW 11.2 mph - N/A   Clear
12:15 PM 82.4 °F 48.2 °F 30% 30.06 in - SW 11.2 mph - N/A   Clear
12:45 PM - - N/A% - - SSW 11.2 mph - N/A   Clear
1:15 PM 84.2 °F 46.4 °F 27% 30.06 in - South 8.9 mph - N/A   Clear
1:45 PM 84.2 °F 48.2 °F 29% 30.06 in - South 8.9 mph - N/A   Clear
2:15 PM 84.2 °F 46.4 °F 27% 30.04 in - South 8.9 mph - N/A   Clear
2:45 PM 86.0 °F 48.2 °F 27% 30.04 in - SSE 8.9 mph - N/A   Clear
3:15 PM 86.0 °F 48.2 °F 27% 30.04 in - SSE 6.7 mph - N/A   Clear
3:45 PM - - N/A% - - Variable 4.5 mph - N/A   Clear
4:15 PM 86.0 °F 46.4 °F 25% 30.01 in - SW 8.9 mph - N/A   Clear
4:45 PM 84.2 °F 44.6 °F 25% 30.01 in - South 6.7 mph - N/A   Clear
5:15 PM 86.0 °F 48.2 °F 27% 30.01 in - South 6.7 mph - N/A   Clear
5:45 PM 84.2 °F 46.4 °F 27% 30.01 in - SE 6.7 mph - N/A   Clear
6:15 PM 84.2 °F 46.4 °F 27% 30.01 in - South 4.5 mph - N/A   Clear
6:45 PM 84.2 °F 46.4 °F 27% 30.01 in - South 4.5 mph - N/A   Clear
7:15 PM 80.6 °F 48.2 °F 32% 30.01 in - South 4.5 mph - N/A   Clear
7:45 PM 75.2 °F 53.6 °F 47% 30.01 in - SSE 2.2 mph - N/A   Clear
8:15 PM 71.6 °F 55.4 °F 57% 30.04 in - SSE 2.2 mph - N/A   Clear
8:45 PM 69.8 °F 55.4 °F 60% 30.04 in - SSE 2.2 mph - N/A   Clear
9:15 PM 66.2 °F 53.6 °F 64% 30.04 in - SE 6.7 mph - N/A   Clear
9:45 PM - - N/A% - - Variable 4.5 mph - N/A   Clear
10:15 PM 62.6 °F 53.6 °F 72% 30.04 in - SSE 2.2 mph - N/A   Clear
10:45 PM 62.6 °F 51.8 °F 68% 30.04 in - SSE 4.5 mph - N/A   Clear
11:15 PM 60.8 °F 51.8 °F 72% 30.04 in - SSE 4.5 mph - N/A   Clear
11:45 PM 60.8 °F 51.8 °F 72% 30.06 in - South 4.5 mph - N/A   Clear